Location: Sternwarte_Laufen
(47.9344°N, 12.9346°E)
Time: 15:32:55
(UTC+02:00)

ISS - Pass Details

Date: 15 May 2026
Orbit: 414 x 424 km, 51.6° (Epoch: 21 May)

Event Time Altitude Azimuth Distance (km) Brightness Sun altitude
Rises 21:44:53 0° 274° (W) 2,350 0.9 -9.5°
Reaches altitude 10° 21:47:03 10° 281° (W) 1,488 0.0 -9.8°
Maximum altitude 21:50:15 43° 355° (N) 595 -2.6 -10.2°
Drops below altitude 10° 21:53:28 10° 69° (ENE) 1,492 -1.2 -10.6°
Enters shadow 21:55:19 - 75° (ENE) 2,227 -0.4 -10.8°
